Location: Alto Pass Reservoir
(37.5801°N, 89.3084°W)
Time: 00:51:51
(UTC+00:00)

Cosmos 2298 Rocket - Pass Details

Date: 09 July 2022
Orbit: 775 x 784 km, 74.0° (Epoch: 15 August)

Event Time Altitude Azimuth Distance (km) Brightness Sun altitude
Rises 07:55:17 0° 347° (NNW) 3,279 8.0 -24.5°
Reaches altitude 10° 07:57:45 10° 352° (N) 2,347 7.2 -24.2°
Maximum altitude 08:02:57 51° 68° (ENE) 978 4.8 -23.7°
Enters shadow 08:06:43 18° 139° (SE) 1,832 5.8 -23.3°
